| time (UTC) | temp C | wind direction | speed KPH | gust KPH | rain 1hr cm | rain 24hr cm | rain mn cm | humidity % | barometer mb |
| 20260506204502 | 12 | 32 | 4.8 | 14.5 | 0.00 | 0.00 | 0.00 | 61 | 1011.9 |
| 20260506203001 | 12 | 34 | 1.6 | 6.4 | 0.00 | 0.00 | 0.00 | 60 | 1011.7 |
| 20260506201502 | 13 | 35 | 0.0 | 8.0 | 0.00 | 0.00 | 0.00 | 58 | 1011.7 |
| 20260506200113 | 13 | 34 | 3.2 | 6.4 | 0.00 | 0.00 | 0.00 | 57 | 1011.6 |
| 20260506194622 | 14 | 34 | 3.2 | 6.4 | 0.00 | 0.00 | 0.00 | 56 | 1011.5 |
| 20260506193100 | 15 | 34 | 1.6 | 8.0 | 0.00 | 0.00 | 0.00 | 52 | 1011.4 |
| 20260506191559 | 15 | 34 | 4.8 | 9.7 | 0.00 | 0.00 | 0.00 | 46 | 1011.3 |
| 20260506190100 | 16 | 30 | 3.2 | 8.0 | 0.00 | 0.00 | 0.00 | 41 | 1011.3 |
| 20260506184610 | 16 | 28 | 3.2 | 8.0 | 0.00 | 0.00 | 0.00 | 40 | 1011.3 |
| 20260506183104 | 16 | 30 | 3.2 | 8.0 | 0.00 | 0.00 | 0.00 | 39 | 1011.2 |
| 20260506181600 | 17 | 29 | 3.2 | 8.0 | 0.00 | 0.00 | 0.00 | 39 | 1011.3 |
| 20260506180055 | 17 | 198 | 1.6 | 4.8 | 0.00 | 0.00 | 0.00 | 39 | 1011.4 |
| 20260506174554 | 17 | 198 | 0.0 | 6.4 | 0.00 | 0.00 | 0.00 | 39 | 1011.5 |
| 20260506173056 | 16 | 198 | 1.6 | 6.4 | 0.00 | 0.00 | 0.00 | 42 | 1011.6 |
| 20260506171551 | 16 | 197 | 4.8 | 9.7 | 0.00 | 0.00 | 0.00 | 43 | 1011.8 |
| 20260506170050 | 16 | 202 | 4.8 | 8.0 | 0.00 | 0.00 | 0.00 | 44 | 1011.8 |
| 20260506164552 | 16 | 223 | 3.2 | 11.3 | 0.00 | 0.00 | 0.00 | 44 | 1011.8 |
| 20260506163052 | 16 | 161 | 4.8 | 9.7 | 0.00 | 0.00 | 0.00 | 43 | 1011.9 |
| 20260506161556 | 16 | 159 | 3.2 | 11.3 | 0.00 | 0.00 | 0.00 | 44 | 1012.0 |
| 20260506160048 | 16 | 168 | 4.8 | 14.5 | 0.00 | 0.00 | 0.00 | 43 | 1012.0 |
| 20260506154547 | 17 | 198 | 6.4 | 11.3 | 0.00 | 0.00 | 0.00 | 40 | 1012.1 |
| 20260506153045 | 18 | 84 | 4.8 | 9.7 | 0.00 | 0.00 | 0.00 | 38 | 1012.1 |
| 20260506151600 | 18 | 159 | 3.2 | 9.7 | 0.00 | 0.00 | 0.00 | 40 | 1012.2 |
| 20260506150041 | 17 | 134 | 3.2 | 8.0 | 0.00 | 0.00 | 0.00 | 42 | 1012.4 |
| 20260506144539 | 17 | 40 | 3.2 | 12.9 | 0.00 | 0.00 | 0.00 | 43 | 1012.4 |
| 20260506143046 | 17 | 71 | 3.2 | 9.7 | 0.00 | 0.00 | 0.00 | 42 | 1012.7 |
| 20260506141535 | 17 | 183 | 1.6 | 8.0 | 0.00 | 0.00 | 0.00 | 43 | 1012.9 |
| 20260506140037 | 17 | 215 | 8.0 | 14.5 | 0.00 | 0.00 | 0.00 | 44 | 1013.1 |
| 20260506134531 | 17 | 201 | 1.6 | 12.9 | 0.00 | 0.00 | 0.00 | 45 | 1013.2 |
| 20260506133026 | 16 | 23 | 3.2 | 9.7 | 0.00 | 0.00 | 0.00 | 46 | 1013.4 |
| 20260506131529 | 16 | 55 | 1.6 | 11.3 | 0.00 | 0.00 | 0.00 | 47 | 1013.4 |
| 20260506130025 | 16 | 81 | 6.4 | 12.9 | 0.00 | 0.00 | 0.00 | 47 | 1013.6 |
| 20260506124524 | 16 | 36 | 4.8 | 9.7 | 0.00 | 0.00 | 0.00 | 47 | 1013.6 |
| 20260506123020 | 15 | 200 | 1.6 | 11.3 | 0.00 | 0.00 | 0.00 | 47 | 1013.7 |
| 20260506121517 | 15 | 254 | 3.2 | 14.5 | 0.00 | 0.00 | 0.00 | 48 | 1013.8 |
| 20260506120015 | 14 | 198 | 9.7 | 14.5 | 0.00 | 0.00 | 0.00 | 52 | 1013.9 |
| 20260506114515 | 13 | 265 | 3.2 | 9.7 | 0.00 | 0.00 | 0.00 | 54 | 1014.0 |
| 20260506113012 | 13 | 15 | 4.8 | 9.7 | 0.00 | 0.00 | 0.00 | 55 | 1014.2 |
| 20260506111509 | 13 | 200 | 0.0 | 16.1 | 0.00 | 0.00 | 0.00 | 59 | 1014.3 |
| 20260506110007 | 13 | 239 | 1.6 | 12.9 | 0.00 | 0.00 | 0.00 | 59 | 1014.4 |
| 20260506104503 | 13 | 139 | 4.8 | 14.5 | 0.00 | 0.00 | 0.00 | 60 | 1014.4 |
| 20260506103003 | 13 | 314 | 1.6 | 8.0 | 0.00 | 0.00 | 0.00 | 61 | 1014.5 |
| 20260506101604 | 12 | 161 | 4.8 | 12.9 | 0.00 | 0.00 | 0.00 | 64 | 1014.6 |
| 20260506100053 | 11 | 59 | 3.2 | 9.7 | 0.00 | 0.00 | 0.00 | 72 | 1014.7 |
| 20260506094556 | 11 | 183 | 4.8 | 12.9 | 0.00 | 0.00 | 0.00 | 77 | 1014.8 |
| 20260506093050 | 10 | 171 | 1.6 | 8.0 | 0.00 | 0.00 | 0.00 | 82 | 1014.9 |
| 20260506091542 | 9 | 167 | 4.8 | 9.7 | 0.00 | 0.00 | 0.00 | 87 | 1014.9 |
| 20260506090039 | 8 | 148 | 0.0 | 9.7 | 0.00 | 0.00 | 0.00 | 91 | 1014.9 |
| 20260506084538 | 7 | 145 | 6.4 | 11.3 | 0.00 | 0.00 | 0.00 | 92 | 1014.9 |
| 20260506083037 | 7 | 127 | 4.8 | 8.0 | 0.00 | 0.00 | 0.00 | 93 | 1014.8 |
| 20260506081536 | 6 | 123 | 1.6 | 6.4 | 0.00 | 0.00 | 0.00 | 93 | 1014.8 |
| 20260506073041 | 5 | 122 | 0.0 | 3.2 | 0.00 | 0.00 | 0.00 | 93 | 1014.8 |
| 20260506071534 | 5 | 128 | 0.0 | 4.8 | 0.00 | 0.00 | 0.00 | 93 | 1014.8 |
| 20260506061531 | 3 | 131 | 1.6 | 8.0 | 0.00 | 0.00 | 0.00 | 92 | 1014.6 |
| 20260506044526 | 3 | 131 | 0.0 | 4.8 | 0.00 | 0.00 | 0.00 | 91 | 1014.1 |
| 20260506043026 | 3 | 131 | 0.0 | 4.8 | 0.00 | 0.00 | 0.00 | 90 | 1014.2 |
| 20260506041530 | 3 | 131 | 1.6 | 11.3 | 0.00 | 0.00 | 0.00 | 90 | 1014.1 |
| 20260506040025 | 4 | 112 | 6.4 | 9.7 | 0.00 | 0.00 | 0.00 | 90 | 1014.2 |
| 20260506034519 | 4 | 102 | 0.0 | 4.8 | 0.00 | 0.00 | 0.00 | 89 | 1014.0 |
| 20260506033017 | 5 | 102 | 3.2 | 6.4 | 0.00 | 0.00 | 0.00 | 89 | 1014.2 |
| 20260506031522 | 5 | 101 | 3.2 | 4.8 | 0.00 | 0.00 | 0.00 | 89 | 1014.3 |
| 20260506030013 | 5 | 101 | 1.6 | 4.8 | 0.00 | 0.00 | 0.00 | 89 | 1014.2 |
| 20260506024512 | 5 | 101 | 0.0 | 0.0 | 0.00 | 0.00 | 0.00 | 89 | 1014.1 |
| 20260506023012 | 5 | 101 | 0.0 | 0.0 | 0.00 | 0.00 | 0.00 | 88 | 1014.1 |
| 20260506021510 | 5 | 101 | 0.0 | 4.8 | 0.00 | 0.00 | 0.00 | 88 | 1014.0 |
| 20260506020008 | 6 | 101 | 0.0 | 4.8 | 0.00 | 0.00 | 0.00 | 89 | 1014.0 |
| 20260506014509 | 6 | 101 | 0.0 | 0.0 | 0.00 | 0.00 | 0.00 | 89 | 1014.0 |
| 20260506013012 | 6 | 101 | 0.0 | 1.6 | 0.00 | 0.00 | 0.00 | 88 | 1014.0 |
| 20260506011503 | 6 | 101 | 0.0 | 4.8 | 0.00 | 0.00 | 0.00 | 88 | 1014.1 |
| 20260506010003 | 6 | 101 | 1.6 | 3.2 | 0.00 | 0.00 | 0.00 | 88 | 1014.1 |
| 20260506004600 | 6 | 101 | 1.6 | 4.8 | 0.00 | 0.00 | 0.00 | 87 | 1014.2 |
| 20260506003059 | 6 | 100 | 1.6 | 9.7 | 0.00 | 0.00 | 0.00 | 87 | 1014.3 |
| 20260506001617 | 6 | 76 | 0.0 | 0.0 | 0.00 | 0.00 | 0.00 | 86 | 1014.3 |
| 20260506000054 | 6 | 76 | 0.0 | 3.2 | 0.00 | 0.00 | 0.00 | 85 | 1014.4 |
| 20260505234553 | 7 | 76 | 0.0 | 8.0 | 0.00 | 0.00 | 0.00 | 85 | 1014.5 |
| 20260505233056 | 7 | 105 | 1.6 | 4.8 | 0.00 | 0.00 | 0.00 | 86 | 1014.5 |
| 20260505231554 | 7 | 105 | 0.0 | 4.8 | 0.00 | 0.00 | 0.00 | 85 | 1014.6 |
| 20260505230047 | 7 | 105 | 0.0 | 9.7 | 0.00 | 0.00 | 0.00 | 85 | 1014.6 |
| 20260505224547 | 7 | 105 | 3.2 | 6.4 | 0.00 | 0.00 | 0.00 | 84 | 1014.7 |
| 20260505223049 | 7 | 93 | 1.6 | 6.4 | 0.00 | 0.00 | 0.00 | 83 | 1014.8 |
| 20260505221547 | 8 | 360 | 0.0 | 0.0 | 0.00 | 0.00 | 0.00 | 82 | 1014.7 |
| 20260505220042 | 8 | 360 | 0.0 | 0.0 | 0.00 | 0.03 | 0.00 | 82 | 1014.8 |
| 20260505214555 | 8 | 360 | 0.0 | 0.0 | 0.00 | 0.03 | 0.00 | 81 | 1014.7 |
| 20260505213052 | 8 | 360 | 0.0 | 1.6 | 0.00 | 0.03 | 0.00 | 81 | 1014.7 |
| 20260505211537 | 8 | 360 | 0.0 | 0.0 | 0.00 | 0.03 | 0.00 | 81 | 1014.7 |
| 20260505210036 | 8 | 360 | 0.0 | 6.4 | 0.00 | 0.03 | 0.00 | 80 | 1014.7 |
| 20260505204625 | 9 | 360 | 1.6 | 8.0 | 0.00 | 0.03 | 0.00 | 78 | 1014.6 |